GLACB EGHN-EGGP

Flight info

Callsign GLACB
Flight time 1h 35m
Altitude 8000
Route SAM Q41 SILVA UM605 DTY M605 PEDIG
Aircraft P28A/L-SFG/C

Departure

Time 2026-04-20 16:14
Airport Isle of Wight/Sandown Airport (EGHN)

Arrival

Time 2026-04-20 17:49
Airport Liverpool John Lennon Airport (EGGP)
Time Latitude Longitude Altitude Speed Heading
2026-04-20 15:53 50.64956 -1.18702 50 ft 0 kts 43°
2026-04-20 16:13 50.64961 -1.18697 55 ft 4 kts 23°
2026-04-20 16:13 50.64981 -1.18703 52 ft 0 kts
2026-04-20 16:13 50.65003 -1.18697 51 ft 10 kts
2026-04-20 16:14 50.65085 -1.18586 47 ft 41 kts 44°
2026-04-20 16:14 50.65410 -1.18087 129 ft 79 kts 55°
2026-04-20 16:14 50.65794 -1.17428 383 ft 81 kts 55°
2026-04-20 16:14 50.66163 -1.16802 690 ft 75 kts 58°
2026-04-20 16:15 50.66514 -1.16162 965 ft 83 kts 56°
2026-04-20 16:15 50.66919 -1.15391 1202 ft 96 kts 55°
2026-04-20 16:15 50.67357 -1.14577 1543 ft 99 kts 49°
2026-04-20 16:15 50.68044 -1.14403 1892 ft 109 kts 355°
2026-04-20 16:16 50.68782 -1.14630 2262 ft 107 kts 356°
2026-04-20 16:16 50.69512 -1.14819 2663 ft 105 kts 357°
2026-04-20 16:16 50.70227 -1.15024 3032 ft 103 kts 356°
2026-04-20 16:16 50.70923 -1.15239 3380 ft 103 kts 356°
2026-04-20 16:17 50.71602 -1.15593 3709 ft 105 kts 342°
2026-04-20 16:17 50.72256 -1.16089 4042 ft 103 kts 343°
2026-04-20 16:17 50.72905 -1.16569 4387 ft 102 kts 343°
2026-04-20 16:17 50.73547 -1.17044 4729 ft 101 kts 343°
2026-04-20 16:18 50.74178 -1.17525 5049 ft 102 kts 336°
2026-04-20 16:18 50.74749 -1.18209 5361 ft 103 kts 330°
2026-04-20 16:18 50.75318 -1.18886 5677 ft 102 kts 330°
2026-04-20 16:18 50.75885 -1.19556 5993 ft 101 kts 330°
2026-04-20 16:19 50.76446 -1.20212 6303 ft 100 kts 330°
2026-04-20 16:19 50.76993 -1.20853 6617 ft 99 kts 331°
2026-04-20 16:19 50.77544 -1.21509 6899 ft 97 kts 329°
2026-04-20 16:19 50.78079 -1.22125 7172 ft 96 kts 331°
2026-04-20 16:20 50.78609 -1.22749 7447 ft 94 kts 329°
2026-04-20 16:20 50.79136 -1.23351 7724 ft 92 kts 329°
2026-04-20 16:20 50.79650 -1.23945 7991 ft 91 kts 329°
2026-04-20 16:20 50.80167 -1.24506 8226 ft 92 kts 330°
2026-04-20 16:21 50.80701 -1.25229 8235 ft 115 kts 304°
2026-04-20 16:21 50.81155 -1.26328 8249 ft 124 kts 317°
2026-04-20 16:21 50.81898 -1.27054 8250 ft 129 kts 340°
2026-04-20 16:21 50.82757 -1.27570 8248 ft 134 kts 342°
2026-04-20 16:22 50.83637 -1.28066 8246 ft 135 kts 342°
2026-04-20 16:22 50.84532 -1.28556 8249 ft 136 kts 343°
2026-04-20 16:22 50.85424 -1.29040 8249 ft 136 kts 343°
2026-04-20 16:22 50.86324 -1.29526 8248 ft 137 kts 343°
2026-04-20 16:23 50.87225 -1.30012 8247 ft 137 kts 343°
2026-04-20 16:23 50.88122 -1.30497 8248 ft 138 kts 343°
2026-04-20 16:23 50.89035 -1.30991 8247 ft 138 kts 344°
2026-04-20 16:23 50.89949 -1.31485 8244 ft 139 kts 344°
2026-04-20 16:24 50.90860 -1.31978 8246 ft 138 kts 344°
2026-04-20 16:24 50.91769 -1.32470 8247 ft 138 kts 343°
2026-04-20 16:24 50.92681 -1.32963 8245 ft 139 kts 343°
2026-04-20 16:24 50.93588 -1.33455 8244 ft 137 kts 343°
2026-04-20 16:25 50.94487 -1.33942 8241 ft 136 kts 344°
2026-04-20 16:25 50.95379 -1.34396 8236 ft 132 kts 351°
2026-04-20 16:25 50.96271 -1.34209 8234 ft 130 kts 15°
2026-04-20 16:25 50.97146 -1.33830 8231 ft 130 kts 15°
2026-04-20 16:26 50.98030 -1.33460 8233 ft 132 kts 15°
2026-04-20 16:26 50.98922 -1.33086 8231 ft 133 kts 15°
2026-04-20 16:26 50.99821 -1.32710 8233 ft 133 kts 15°
2026-04-20 16:26 51.00719 -1.32334 8235 ft 134 kts 15°
2026-04-20 16:27 51.01612 -1.31960 8237 ft 132 kts 15°
2026-04-20 16:27 51.02494 -1.31590 8237 ft 133 kts 15°
2026-04-20 16:27 51.03393 -1.31214 8239 ft 133 kts 15°
2026-04-20 16:27 51.04298 -1.30834 8237 ft 135 kts 15°
2026-04-20 16:28 51.05203 -1.30455 8238 ft 135 kts 15°
2026-04-20 16:28 51.06102 -1.30078 8240 ft 132 kts 15°
2026-04-20 16:28 51.06992 -1.29704 8238 ft 133 kts 15°
2026-04-20 16:28 51.07886 -1.29328 8235 ft 134 kts 15°
2026-04-20 16:29 51.08787 -1.28950 8237 ft 134 kts 15°
2026-04-20 16:29 51.09683 -1.28573 8237 ft 133 kts 15°
2026-04-20 16:29 51.10573 -1.28199 8238 ft 132 kts 15°
2026-04-20 16:29 51.11463 -1.27824 8235 ft 132 kts 15°
2026-04-20 16:30 51.12355 -1.27449 8233 ft 133 kts 15°
2026-04-20 16:30 51.12950 -1.27199 8233 ft 134 kts 15°
2026-04-20 16:30 51.14138 -1.26698 8235 ft 133 kts 14°
2026-04-20 16:30 51.14740 -1.26445 8237 ft 132 kts 15°
2026-04-20 16:31 51.15628 -1.26071 8235 ft 132 kts 15°
2026-04-20 16:31 51.16810 -1.25573 8238 ft 133 kts 15°
2026-04-20 16:31 51.17418 -1.25316 8235 ft 134 kts 15°
2026-04-20 16:31 51.18319 -1.24936 8236 ft 134 kts 15°
2026-04-20 16:32 51.19214 -1.24558 8239 ft 132 kts 14°
2026-04-20 16:32 51.20093 -1.24187 8236 ft 133 kts 15°
2026-04-20 16:32 51.20988 -1.23808 8237 ft 133 kts 15°
2026-04-20 16:32 51.21883 -1.23430 8237 ft 133 kts 15°
2026-04-20 16:33 51.22779 -1.23052 8239 ft 134 kts 15°
2026-04-20 16:33 51.23681 -1.22670 8242 ft 134 kts 15°
2026-04-20 16:33 51.24578 -1.22290 8239 ft 134 kts 15°
2026-04-20 16:33 51.25474 -1.21912 8234 ft 132 kts 14°
2026-04-20 16:34 51.26370 -1.21533 8236 ft 133 kts 14°
2026-04-20 16:34 51.27264 -1.21154 8236 ft 133 kts 14°
2026-04-20 16:34 51.28156 -1.20776 8239 ft 132 kts 15°
2026-04-20 16:34 51.29042 -1.20400 8238 ft 132 kts 15°
2026-04-20 16:35 51.29936 -1.20021 8236 ft 133 kts 15°
2026-04-20 16:35 51.30823 -1.19644 8235 ft 135 kts 15°
2026-04-20 16:35 51.31727 -1.19261 8237 ft 134 kts 14°
2026-04-20 16:35 51.32623 -1.18880 8242 ft 132 kts 15°
2026-04-20 16:36 51.33512 -1.18502 8241 ft 133 kts 15°
2026-04-20 16:36 51.34410 -1.18121 8241 ft 133 kts 15°
2026-04-20 16:36 51.35311 -1.17738 8242 ft 134 kts 15°
2026-04-20 16:36 51.36204 -1.17358 8245 ft 135 kts 15°
2026-04-20 16:37 51.37119 -1.16969 8248 ft 134 kts 16°
2026-04-20 16:37 51.38008 -1.16590 8250 ft 134 kts 15°
2026-04-20 16:37 51.38911 -1.16206 8249 ft 134 kts 15°
2026-04-20 16:37 51.39815 -1.15821 8249 ft 135 kts 16°
2026-04-20 16:38 51.40720 -1.15435 8251 ft 134 kts 16°
2026-04-20 16:38 51.41622 -1.15051 8253 ft 133 kts 16°
2026-04-20 16:38 51.42520 -1.14667 8256 ft 134 kts 15°
2026-04-20 16:38 51.43419 -1.14284 8259 ft 134 kts 16°
2026-04-20 16:39 51.44327 -1.13896 8260 ft 136 kts 15°
2026-04-20 16:39 51.45239 -1.13506 8261 ft 136 kts 15°
2026-04-20 16:39 51.46146 -1.13119 8265 ft 134 kts 16°
2026-04-20 16:39 51.47041 -1.12736 8261 ft 133 kts 15°
2026-04-20 16:40 51.47923 -1.12359 8259 ft 133 kts 15°
2026-04-20 16:40 51.48820 -1.11976 8256 ft 133 kts 15°
2026-04-20 16:40 51.49710 -1.11595 8254 ft 132 kts 15°
2026-04-20 16:40 51.50587 -1.11220 8258 ft 130 kts 16°
2026-04-20 16:41 51.51458 -1.10847 8256 ft 130 kts 15°
2026-04-20 16:41 51.52328 -1.10475 8292 ft 127 kts 15°
2026-04-20 16:41 51.53164 -1.10117 8468 ft 121 kts 15°
2026-04-20 16:41 51.53950 -1.09781 8640 ft 114 kts 15°
2026-04-20 16:42 51.54696 -1.09462 8813 ft 108 kts 15°
2026-04-20 16:42 51.55403 -1.09160 8985 ft 102 kts 14°
2026-04-20 16:42 51.56077 -1.08871 9156 ft 98 kts 13°
2026-04-20 16:42 51.56726 -1.08593 9329 ft 94 kts 13°
2026-04-20 16:43 51.57349 -1.08328 9497 ft 91 kts 14°
2026-04-20 16:43 51.57949 -1.08071 9679 ft 88 kts 14°
2026-04-20 16:43 51.58523 -1.07825 9856 ft 83 kts 13°
2026-04-20 16:43 51.59069 -1.07592 10029 ft 79 kts 13°
2026-04-20 16:44 51.59587 -1.07371 10196 ft 74 kts 12°
2026-04-20 16:44 51.60098 -1.07154 10257 ft 81 kts 12°
2026-04-20 16:44 51.60677 -1.06903 10274 ft 91 kts 12°
2026-04-20 16:44 51.61327 -1.06620 10280 ft 103 kts 12°
2026-04-20 16:45 51.62060 -1.06394 10280 ft 111 kts
2026-04-20 16:45 51.62828 -1.06191 10277 ft 115 kts
2026-04-20 16:45 51.63631 -1.05980 10276 ft 118 kts
2026-04-20 16:45 51.64497 -1.05756 10084 ft 133 kts
2026-04-20 16:46 51.65444 -1.05509 9860 ft 141 kts
2026-04-20 16:46 51.66432 -1.05254 9634 ft 146 kts
2026-04-20 16:46 51.67441 -1.04995 9404 ft 148 kts
2026-04-20 16:46 51.68467 -1.04732 9170 ft 150 kts
2026-04-20 16:47 51.69492 -1.04469 8939 ft 152 kts
2026-04-20 16:47 51.70549 -1.04197 8700 ft 154 kts 10°
2026-04-20 16:47 51.71610 -1.03925 8467 ft 155 kts 10°
2026-04-20 16:47 51.72669 -1.03653 8235 ft 154 kts 11°
2026-04-20 16:48 51.73738 -1.03378 8003 ft 156 kts 11°
2026-04-20 16:48 51.74817 -1.03102 7773 ft 157 kts 11°
2026-04-20 16:48 51.75902 -1.02822 7544 ft 158 kts 12°
2026-04-20 16:48 51.76995 -1.02541 7317 ft 159 kts 12°
2026-04-20 16:49 51.78089 -1.02259 7091 ft 159 kts 12°
2026-04-20 16:49 51.79188 -1.01975 6866 ft 159 kts 13°
2026-04-20 16:49 51.80276 -1.01694 6764 ft 155 kts 12°
2026-04-20 16:49 51.81314 -1.01430 6756 ft 148 kts 12°
2026-04-20 16:50 51.82321 -1.01170 6754 ft 145 kts 13°
2026-04-20 16:50 51.83313 -1.00912 6753 ft 144 kts 12°
2026-04-20 16:50 51.84289 -1.00660 6754 ft 143 kts 12°
2026-04-20 16:50 51.85285 -1.00673 6755 ft 146 kts 351°
2026-04-20 16:51 51.86276 -1.01017 6754 ft 146 kts 351°
2026-04-20 16:51 51.87269 -1.01347 6754 ft 146 kts 353°
2026-04-20 16:51 51.88272 -1.01673 6755 ft 148 kts 352°
2026-04-20 16:51 51.89283 -1.02001 6757 ft 148 kts 352°
2026-04-20 16:52 51.90295 -1.02330 6760 ft 149 kts 352°
2026-04-20 16:52 51.91311 -1.02660 6761 ft 149 kts 351°
2026-04-20 16:52 51.92327 -1.02990 6763 ft 149 kts 352°
2026-04-20 16:52 51.93344 -1.03320 6762 ft 149 kts 352°
2026-04-20 16:53 51.94360 -1.03651 6762 ft 149 kts 353°
2026-04-20 16:53 51.95380 -1.03980 6762 ft 149 kts 352°
2026-04-20 16:53 51.96398 -1.04310 6758 ft 149 kts 351°
2026-04-20 16:53 51.97416 -1.04643 6762 ft 149 kts 352°
2026-04-20 16:54 51.98436 -1.04976 6764 ft 149 kts 353°
2026-04-20 16:54 51.99442 -1.05304 6765 ft 149 kts 353°
2026-04-20 16:54 52.00460 -1.05634 6766 ft 149 kts 353°
2026-04-20 16:54 52.01483 -1.05967 6767 ft 150 kts 353°
2026-04-20 16:55 52.02509 -1.06303 6766 ft 150 kts 353°
2026-04-20 16:55 52.03532 -1.06636 6790 ft 151 kts 351°
2026-04-20 16:55 52.04560 -1.06971 6790 ft 150 kts 352°
2026-04-20 16:55 52.05583 -1.07306 6792 ft 149 kts 352°
2026-04-20 16:56 52.06602 -1.07638 6795 ft 149 kts 351°
2026-04-20 16:56 52.07622 -1.07971 6796 ft 150 kts 352°
2026-04-20 16:56 52.08647 -1.08306 6798 ft 150 kts 351°
2026-04-20 16:56 52.09663 -1.08639 6800 ft 151 kts 351°
2026-04-20 16:57 52.10704 -1.08980 6801 ft 150 kts 351°
2026-04-20 16:57 52.11714 -1.09312 6803 ft 150 kts 353°
2026-04-20 16:57 52.12749 -1.09650 6805 ft 150 kts 352°
2026-04-20 16:57 52.13771 -1.09985 6805 ft 150 kts 351°
2026-04-20 16:58 52.14784 -1.10317 6807 ft 150 kts 351°
2026-04-20 16:58 52.15814 -1.10655 6808 ft 151 kts 351°
2026-04-20 16:58 52.16838 -1.10992 6808 ft 150 kts 351°
2026-04-20 16:58 52.17832 -1.11328 6933 ft 143 kts 349°
2026-04-20 16:59 52.18710 -1.12077 7044 ft 143 kts 330°
2026-04-20 16:59 52.19531 -1.12966 7167 ft 141 kts 329°
2026-04-20 16:59 52.20350 -1.13835 7292 ft 140 kts 329°
2026-04-20 16:59 52.21187 -1.14717 7308 ft 146 kts 330°
2026-04-20 17:00 52.22923 -1.16552 7311 ft 150 kts 330°
2026-04-20 17:00 52.23802 -1.17478 7315 ft 151 kts 330°
2026-04-20 17:00 52.24683 -1.18409 7316 ft 151 kts 329°
2026-04-20 17:01 52.25561 -1.19337 7319 ft 150 kts 330°
2026-04-20 17:01 52.26440 -1.20266 7319 ft 150 kts 329°
2026-04-20 17:01 52.27309 -1.21185 7319 ft 151 kts 330°
2026-04-20 17:01 52.28191 -1.22118 7318 ft 150 kts 330°
2026-04-20 17:02 52.29065 -1.23044 7318 ft 149 kts 330°
2026-04-20 17:02 52.29935 -1.23968 7319 ft 149 kts 329°
2026-04-20 17:02 52.30804 -1.24888 7318 ft 149 kts 330°
2026-04-20 17:02 52.31671 -1.25806 7316 ft 149 kts 329°
2026-04-20 17:03 52.32542 -1.26732 7316 ft 149 kts 329°
2026-04-20 17:03 52.33410 -1.27652 7315 ft 148 kts 330°
2026-04-20 17:03 52.34275 -1.28571 7314 ft 148 kts 329°
2026-04-20 17:03 52.35132 -1.29481 7313 ft 149 kts 329°
2026-04-20 17:04 52.36000 -1.30404 7312 ft 149 kts 330°
2026-04-20 17:04 52.36869 -1.31326 7309 ft 149 kts 329°
2026-04-20 17:04 52.37738 -1.32252 7311 ft 149 kts 329°
2026-04-20 17:04 52.38611 -1.33182 7310 ft 149 kts 329°
2026-04-20 17:05 52.39484 -1.34111 7310 ft 149 kts 329°
2026-04-20 17:05 52.40352 -1.35037 7308 ft 149 kts 330°
2026-04-20 17:05 52.41216 -1.35957 7305 ft 148 kts 330°
2026-04-20 17:05 52.42076 -1.36874 7261 ft 148 kts 329°
2026-04-20 17:06 52.42938 -1.37793 7258 ft 148 kts 330°
2026-04-20 17:06 52.43800 -1.38715 7256 ft 148 kts 329°
2026-04-20 17:06 52.44664 -1.39636 7253 ft 148 kts 328°
2026-04-20 17:06 52.45525 -1.40558 7253 ft 148 kts 330°
2026-04-20 17:07 52.46387 -1.41479 7254 ft 148 kts 330°
2026-04-20 17:07 52.47249 -1.42400 7253 ft 148 kts 330°
2026-04-20 17:07 52.48110 -1.43322 7253 ft 148 kts 330°
2026-04-20 17:07 52.48974 -1.44246 7253 ft 148 kts 329°
2026-04-20 17:08 52.49838 -1.45170 7255 ft 148 kts 328°
2026-04-20 17:08 52.50691 -1.46086 7254 ft 148 kts 330°
2026-04-20 17:08 52.51450 -1.47235 7248 ft 149 kts 314°
2026-04-20 17:08 52.52142 -1.48505 7246 ft 149 kts 316°
2026-04-20 17:09 52.52851 -1.49748 7241 ft 150 kts 315°
2026-04-20 17:09 52.53576 -1.50999 7240 ft 152 kts 316°
2026-04-20 17:09 52.54309 -1.52259 7240 ft 153 kts 315°
2026-04-20 17:09 52.55043 -1.53523 7242 ft 153 kts 315°
2026-04-20 17:10 52.55781 -1.54794 7241 ft 154 kts 316°
2026-04-20 17:10 52.56523 -1.56070 7241 ft 155 kts 316°
2026-04-20 17:10 52.57265 -1.57349 7241 ft 155 kts 316°
2026-04-20 17:10 52.58006 -1.58629 7242 ft 154 kts 316°
2026-04-20 17:11 52.58746 -1.59904 7246 ft 154 kts 316°
2026-04-20 17:11 52.59485 -1.61179 7247 ft 154 kts 315°
2026-04-20 17:11 52.60214 -1.62438 7247 ft 154 kts 315°
2026-04-20 17:11 52.60953 -1.63715 7248 ft 153 kts 315°
2026-04-20 17:12 52.61688 -1.64985 7248 ft 153 kts 315°
2026-04-20 17:12 52.62422 -1.66254 7248 ft 153 kts 315°
2026-04-20 17:12 52.63155 -1.67523 7250 ft 153 kts 316°
2026-04-20 17:12 52.63891 -1.68798 7251 ft 153 kts 315°
2026-04-20 17:13 52.64626 -1.70071 7250 ft 154 kts 316°
2026-04-20 17:13 52.65363 -1.71348 7252 ft 154 kts 315°
2026-04-20 17:13 52.66100 -1.72624 7255 ft 154 kts 316°
2026-04-20 17:13 52.66839 -1.73907 7286 ft 154 kts 316°
2026-04-20 17:14 52.67328 -1.74755 7287 ft 154 kts 315°
2026-04-20 17:14 52.68062 -1.76031 7288 ft 154 kts 316°
2026-04-20 17:14 52.68798 -1.77310 7287 ft 154 kts 315°
2026-04-20 17:14 52.69534 -1.78589 7287 ft 154 kts 315°
2026-04-20 17:15 52.70270 -1.79869 7289 ft 154 kts 315°
2026-04-20 17:15 52.71005 -1.81147 7288 ft 153 kts 315°
2026-04-20 17:15 52.71737 -1.82422 7288 ft 153 kts 315°
2026-04-20 17:15 52.72471 -1.83700 7288 ft 153 kts 316°
2026-04-20 17:16 52.73207 -1.84983 7283 ft 153 kts 315°
2026-04-20 17:16 52.73931 -1.86245 7281 ft 154 kts 316°
2026-04-20 17:16 52.74666 -1.87526 7281 ft 154 kts 316°
2026-04-20 17:16 52.75398 -1.88807 7282 ft 153 kts 316°
2026-04-20 17:17 52.76130 -1.90083 7280 ft 153 kts 317°
2026-04-20 17:17 52.76857 -1.91356 7280 ft 152 kts 315°
2026-04-20 17:17 52.77582 -1.92621 7279 ft 151 kts 317°
2026-04-20 17:17 52.78306 -1.93887 7279 ft 151 kts 315°
2026-04-20 17:18 52.79027 -1.95150 7280 ft 150 kts 316°
2026-04-20 17:18 52.79743 -1.96403 7282 ft 150 kts 316°
2026-04-20 17:18 52.80461 -1.97662 7280 ft 151 kts 317°
2026-04-20 17:18 52.81183 -1.98925 7279 ft 151 kts 317°
2026-04-20 17:19 52.81904 -2.00191 7279 ft 151 kts 315°
2026-04-20 17:19 52.82628 -2.01460 7280 ft 152 kts 316°
2026-04-20 17:19 52.83360 -2.02744 7278 ft 154 kts 316°
2026-04-20 17:19 52.84088 -2.04023 7279 ft 155 kts 316°
2026-04-20 17:20 52.84828 -2.05325 7281 ft 155 kts 315°
2026-04-20 17:20 52.85565 -2.06622 7282 ft 155 kts 315°
2026-04-20 17:20 52.86304 -2.07922 7282 ft 155 kts 316°
2026-04-20 17:20 52.87043 -2.09221 7282 ft 155 kts 315°
2026-04-20 17:21 52.87781 -2.10522 7282 ft 154 kts 315°
2026-04-20 17:21 52.88507 -2.11801 7283 ft 154 kts 315°
2026-04-20 17:21 52.89244 -2.13100 7280 ft 154 kts 315°
2026-04-20 17:21 52.89980 -2.14398 7279 ft 154 kts 316°
2026-04-20 17:22 52.90716 -2.15696 7282 ft 154 kts 315°
2026-04-20 17:22 52.91448 -2.16991 7281 ft 154 kts 316°
2026-04-20 17:22 52.92182 -2.18286 7282 ft 155 kts 316°
2026-04-20 17:22 52.92919 -2.19588 7281 ft 155 kts 316°
2026-04-20 17:23 52.93656 -2.20893 7279 ft 155 kts 316°
2026-04-20 17:23 52.94394 -2.22199 7279 ft 155 kts 316°
2026-04-20 17:23 52.95126 -2.23494 7273 ft 153 kts 315°
2026-04-20 17:23 52.95855 -2.24786 7272 ft 153 kts 315°
2026-04-20 17:24 52.96583 -2.26077 7269 ft 153 kts 315°
2026-04-20 17:24 52.97302 -2.27351 7269 ft 153 kts 315°
2026-04-20 17:24 52.98031 -2.28644 7270 ft 154 kts 315°
2026-04-20 17:24 52.98765 -2.29947 7270 ft 155 kts 315°
2026-04-20 17:25 52.99503 -2.31257 7269 ft 155 kts 316°
2026-04-20 17:25 53.00238 -2.32564 7272 ft 155 kts 316°
2026-04-20 17:25 53.00973 -2.33871 7272 ft 155 kts 316°
2026-04-20 17:25 53.01712 -2.35185 7272 ft 156 kts 316°
2026-04-20 17:26 53.02235 -2.36743 7270 ft 157 kts 287°
2026-04-20 17:26 53.02501 -2.38514 7271 ft 158 kts 285°
2026-04-20 17:26 53.02769 -2.40286 7271 ft 158 kts 285°
2026-04-20 17:26 53.03036 -2.42059 7272 ft 158 kts 285°
2026-04-20 17:27 53.03303 -2.43834 7265 ft 159 kts 285°
2026-04-20 17:27 53.03570 -2.45621 7266 ft 159 kts 285°
2026-04-20 17:27 53.03836 -2.47409 7265 ft 159 kts 285°
2026-04-20 17:27 53.04101 -2.49189 7267 ft 159 kts 285°
2026-04-20 17:28 53.04367 -2.50978 7266 ft 159 kts 285°
2026-04-20 17:28 53.04630 -2.52757 7267 ft 158 kts 285°
2026-04-20 17:28 53.04893 -2.54533 7265 ft 158 kts 284°
2026-04-20 17:28 53.05176 -2.56266 7265 ft 157 kts 285°
2026-04-20 17:29 53.05464 -2.58012 7262 ft 156 kts 285°
2026-04-20 17:29 53.05751 -2.59759 7263 ft 156 kts 285°
2026-04-20 17:29 53.06037 -2.61502 7263 ft 156 kts 285°
2026-04-20 17:29 53.06322 -2.63247 7263 ft 156 kts 285°
2026-04-20 17:30 53.06608 -2.64998 7260 ft 157 kts 285°
2026-04-20 17:30 53.06895 -2.66757 7260 ft 158 kts 285°
2026-04-20 17:30 53.07182 -2.68522 7260 ft 158 kts 285°
2026-04-20 17:30 53.07469 -2.70291 7261 ft 158 kts 285°
2026-04-20 17:31 53.07754 -2.72061 7268 ft 159 kts 285°
2026-04-20 17:31 53.08038 -2.73835 7267 ft 158 kts 285°
2026-04-20 17:31 53.08321 -2.75602 7266 ft 158 kts 285°
2026-04-20 17:31 53.08602 -2.77370 7265 ft 158 kts 285°
2026-04-20 17:32 53.08879 -2.79113 7261 ft 158 kts 285°
2026-04-20 17:32 53.09161 -2.80877 7261 ft 157 kts 286°
2026-04-20 17:32 53.09572 -2.82555 7156 ft 159 kts 295°
2026-04-20 17:32 53.10033 -2.84229 6830 ft 158 kts 295°
2026-04-20 17:33 53.10493 -2.85885 6494 ft 157 kts 295°
2026-04-20 17:33 53.10953 -2.87536 6145 ft 159 kts 294°
2026-04-20 17:33 53.11421 -2.89209 5807 ft 160 kts 295°
2026-04-20 17:33 53.11890 -2.90892 5472 ft 161 kts 294°
2026-04-20 17:34 53.12357 -2.92569 5270 ft 154 kts 295°
2026-04-20 17:34 53.12785 -2.94115 5262 ft 142 kts 294°
2026-04-20 17:34 53.13192 -2.95575 5257 ft 136 kts 294°
2026-04-20 17:34 53.13587 -2.96987 5258 ft 133 kts 294°
2026-04-20 17:35 53.13972 -2.98376 5260 ft 131 kts 294°
2026-04-20 17:35 53.14352 -2.99760 5258 ft 132 kts 294°
2026-04-20 17:35 53.14732 -3.01148 5260 ft 132 kts 294°
2026-04-20 17:35 53.15114 -3.02535 5257 ft 131 kts 294°
2026-04-20 17:36 53.15497 -3.03912 5258 ft 131 kts 294°
2026-04-20 17:36 53.15878 -3.05287 5259 ft 130 kts 294°
2026-04-20 17:36 53.16257 -3.06663 5261 ft 131 kts 294°
2026-04-20 17:36 53.16645 -3.08047 5262 ft 132 kts 294°
2026-04-20 17:37 53.17076 -3.09393 5253 ft 132 kts 312°
2026-04-20 17:37 53.17802 -3.10378 5004 ft 136 kts 323°
2026-04-20 17:37 53.18547 -3.11342 4687 ft 135 kts 323°
2026-04-20 17:37 53.19287 -3.12309 4372 ft 135 kts 323°
2026-04-20 17:38 53.19990 -3.13226 4266 ft 122 kts 323°
2026-04-20 17:38 53.20682 -3.14128 4269 ft 132 kts 323°
2026-04-20 17:38 53.21427 -3.15098 4276 ft 139 kts 322°
2026-04-20 17:38 53.22204 -3.16092 4278 ft 142 kts 322°
2026-04-20 17:39 53.22991 -3.17101 4276 ft 143 kts 322°
2026-04-20 17:39 53.23783 -3.18114 4277 ft 144 kts 322°
2026-04-20 17:39 53.24578 -3.19128 4276 ft 144 kts 322°
2026-04-20 17:39 53.25375 -3.20142 4278 ft 144 kts 322°
2026-04-20 17:40 53.26181 -3.21168 4275 ft 147 kts 322°
2026-04-20 17:40 53.27015 -3.22145 4269 ft 146 kts 338°
2026-04-20 17:40 53.27955 -3.22011 4245 ft 138 kts 31°
2026-04-20 17:40 53.28820 -3.21216 4125 ft 145 kts 33°
2026-04-20 17:41 53.29719 -3.20395 4004 ft 148 kts 32°
2026-04-20 17:41 53.30656 -3.19548 3721 ft 152 kts 32°
2026-04-20 17:41 53.31524 -3.18744 3430 ft 135 kts 38°
2026-04-20 17:41 53.32004 -3.17634 3388 ft 111 kts 79°
2026-04-20 17:42 53.32082 -3.16374 3345 ft 106 kts 94°
2026-04-20 17:42 53.32104 -3.15143 3295 ft 107 kts 91°
2026-04-20 17:42 53.32140 -3.13918 3306 ft 104 kts 92°
2026-04-20 17:42 53.32176 -3.12682 3221 ft 111 kts 91°
2026-04-20 17:43 53.32221 -3.11326 3089 ft 120 kts 91°
2026-04-20 17:43 53.32271 -3.09941 2894 ft 117 kts 89°
2026-04-20 17:43 53.32338 -3.08597 2645 ft 113 kts 88°
2026-04-20 17:43 53.32391 -3.07392 2524 ft 93 kts 91°
2026-04-20 17:44 53.32390 -3.06393 2396 ft 81 kts 91°
2026-04-20 17:44 53.32400 -3.05463 2215 ft 81 kts 90°
2026-04-20 17:44 53.32441 -3.04501 2166 ft 85 kts 86°
2026-04-20 17:44 53.32490 -3.03524 2130 ft 84 kts 84°
2026-04-20 17:45 53.32548 -3.02537 2022 ft 88 kts 84°
2026-04-20 17:45 53.32609 -3.01559 1889 ft 80 kts 84°
2026-04-20 17:45 53.32658 -3.00633 1695 ft 80 kts 86°
2026-04-20 17:45 53.32699 -2.99731 1594 ft 74 kts 85°
2026-04-20 17:46 53.32737 -2.98876 1495 ft 77 kts 86°
2026-04-20 17:46 53.32773 -2.97986 1460 ft 75 kts 86°
2026-04-20 17:46 53.32803 -2.97105 1393 ft 79 kts 84°
2026-04-20 17:46 53.32878 -2.96195 1249 ft 81 kts 81°
2026-04-20 17:47 53.32919 -2.95250 1158 ft 80 kts 88°
2026-04-20 17:47 53.32918 -2.94312 1043 ft 80 kts 86°
2026-04-20 17:47 53.32987 -2.93389 917 ft 79 kts 79°
2026-04-20 17:47 53.33065 -2.92500 827 ft 75 kts 84°
2026-04-20 17:48 53.33094 -2.91619 692 ft 74 kts 86°
2026-04-20 17:48 53.33132 -2.90779 596 ft 76 kts 85°
2026-04-20 17:48 53.33159 -2.89890 480 ft 76 kts 87°
2026-04-20 17:48 53.33196 -2.88981 401 ft 78 kts 86°
2026-04-20 17:49 53.33230 -2.88066 303 ft 80 kts 88°
2026-04-20 17:49 53.33262 -2.87153 199 ft 79 kts 90°
2026-04-20 17:49 53.33303 -2.86329 76 ft 61 kts 87°
2026-04-20 17:49 53.33330 -2.85754 75 ft 40 kts 87°
2026-04-20 17:50 53.33355 -2.85186 75 ft 54 kts 87°
2026-04-20 17:50 53.33400 -2.84609 66 ft 46 kts 68°
2026-04-20 17:50 53.33543 -2.84184 74 ft 38 kts 58°
2026-04-20 17:50 53.33579 -2.83912 71 ft 20 kts 85°
2026-04-20 17:51 53.33629 -2.83799 76 ft 11 kts 356°
2026-04-20 17:51 53.33658 -2.83800 77 ft 0 kts 359°